This demonstration page uses our WeatherBlox Daily Observations layout. Learn more.

38.89511, -77.03637

Hourly Observations for September 5, 2019

Temp ( °F °C ) Dew Point ( °F °C ) Humidity (%) Winds ( mph kmh ) Pressure ( in mb ) Visibility ( mi km ) Precip ( " mm )
12:52 am 00:52 Cloudy 79 26.1 73 22.8 82 82 N 7 11 29.97 1015 10 16.09344 0 0
1:52 am 01:52 Cloudy 79 26.1 72 22.2 79 79 NNE 6 9 29.97 1015 10 16.09344 0 0
2:52 am 02:52 Cloudy 77 25 63 17.2 62 62 NNE 7 11 29.97 1015 10 16.09344 0 0
3:52 am 03:52 Cloudy 76 24.4 61 16.1 60 60 N 14 22 29.97 1015 10 16.09344 0 0
4:52 am 04:52 Cloudy 75 23.9 61 16.1 62 62 NNE 12 19 30 1016 10 16.09344 0 0
5:52 am 05:52 Cloudy 74 23.3 61 16.1 64 64 NNE 10 17 30 1016 10 16.09344 0 0
6:52 am 06:52 Cloudy 73 22.8 61 16.1 66 66 NE 10 17 30.03 1017 10 16.09344 0 0
7:52 am 07:52 Cloudy 73 22.8 61 16.1 66 66 NNE 12 19 30.03 1017 10 16.09344 0 0
8:52 am 08:52 Cloudy 73 22.8 61 16.1 66 66 NE 14 22 30.06 1018 10 16.09344 0 0
9:52 am 09:52 Cloudy 75 23.9 62 16.7 64 64 NE 13 20 30.06 1018 10 16.09344 0 0
10:00 am 10:00 Cloudy 75 23.9 62 16.7 64 64 NNE 13 20 30.06 1018 10 16.09344 0 0
10:23 am 10:23 Cloudy 77 25 62 16.7 60 60 NE 9 15 30.06 1018 10 16.09344 0 0
10:49 am 10:49 Cloudy 75 24 63 17 65 65 NE 14 22 30.06 1018 10 16.09344 0 0
10:52 am 10:52 Cloudy 76 24.4 62 16.7 62 62 NE 13 20 30.06 1018 10 16.09344 0 0
11:52 am 11:52 Cloudy 78 25.6 62 16.7 58 58 ENE 14 22 30.03 1017 10 16.09344 0 0
12:52 pm 12:52 Cloudy 79 26.1 60 15.6 52 52 NE 8 13 30.03 1017 10 16.09344 0 0
1:52 pm 13:52 Cloudy 79 26.1 61 16.1 54 54 ENE 10 17 30.03 1017 10 16.09344 0 0
2:52 pm 14:52 Cloudy 79 26.1 62 16.7 56 56 E 10 17 30 1016 10 16.09344 0 0
3:52 pm 15:52 Cloudy 77 25 63 17.2 62 62 E 10 17 30 1016 10 16.09344 0 0
4:52 pm 16:52 Cloudy 77 25 63 17.2 62 62 E 12 19 29.97 1015 10 16.09344 0 0
5:52 pm 17:52 Cloudy 77 25 63 17.2 62 62 ENE 9 15 30 1016 10 16.09344 0 0
6:52 pm 18:52 Cloudy 76 24.4 62 16.7 62 62 ENE 14 22 29.97 1015 10 16.09344 0 0
7:52 pm 19:52 Cloudy 76 24.4 63 17.2 64 64 NE 12 19 29.97 1015 10 16.09344 0 0
8:52 pm 20:52 Cloudy 75 23.9 63 17.2 66 66 ENE 9 15 30 1016 10 16.09344 0 0
9:52 pm 21:52 Cloudy 75 23.9 63 17.2 66 66 NNE 9 15 29.97 1015 10 16.09344 0 0
10:52 pm 22:52 Cloudy 74 23.3 63 17.2 69 69 ENE 12 19 29.97 1015 10 16.09344 0 0
11:52 pm 23:52 Cloudy 73 22.8 64 17.8 74 74 NE 14 22 29.94 1014 10 16.09344 0 0

Powered by AerisWeather